• In Denmark
  • List of Countries
  • For 7 days
  • Water Temperature
  • Satellite Maps
  • Weather Map
  • Weather Widgets
  • user-avatar
    Login

    Hourly Weather Salvador

    Today, 17 December, Sunday

    Time Temperature Precipitation Wind Pressure Humidity
    00:00 +24°C° 0.1 mm 3 mps 756 mmHg 95%
    01:00 +24°C° 0.3 mm 3 mps 756 mmHg 95%
    02:00 +24°C° 0.3 mm 3 mps 756 mmHg 95%
    03:00 +24°C° 0.3 mm 3 mps 756 mmHg 95%
    04:00 +24°C° 0.6 mm 3 mps 756 mmHg 95%
    05:00 +25°C° 0.6 mm 3 mps 756 mmHg 94%
    06:00 +25°C° 0.6 mm 3 mps 756 mmHg 93%
    07:00 +27°C° 0.5 mm 3 mps 757 mmHg 85%
    08:00 +28°C° 0.5 mm 3 mps 757 mmHg 78%
    09:00 +30°C° 0.5 mm 3 mps 757 mmHg 71%
    10:00 +30°C° 0.8 mm 3 mps 757 mmHg 73%
    11:00 +30°C° 0.8 mm 4 mps 757 mmHg 76%
    12:00 +30°C° 0.8 mm 4 mps 757 mmHg 79%
    13:00 +29°C° 0.7 mm 5 mps 757 mmHg 80%
    14:00 +29°C° 0.7 mm 5 mps 757 mmHg 82%
    15:00 +28°C° 0.7 mm 5 mps 756 mmHg 83%
    16:00 +28°C° 0.7 mm 5 mps 756 mmHg 87%
    17:00 +27°C° 0.7 mm 5 mps 757 mmHg 90%
    18:00 +26°C° 0.7 mm 4 mps 757 mmHg 93%
    19:00 +25°C° 0.7 mm 4 mps 757 mmHg 94%
    20:00 +25°C° 0.7 mm 4 mps 758 mmHg 94%
    21:00 +25°C° 0.7 mm 4 mps 758 mmHg 95%
    22:00 +23°C° 0.9 mm 4 mps 758 mmHg 96%
    23:00 +23°C° 0.9 mm 4 mps 758 mmHg 96%

    Tomorrow, 18 December, Monday

    Time Temperature Precipitation Wind Pressure Humidity
    00:00 +23°C° 0.9 mm 4 mps 758 mmHg 96%
    01:00 +23°C° 0.2 mm 4 mps 757 mmHg 96%
    02:00 +24°C° 0.2 mm 3 mps 757 mmHg 96%
    03:00 +24°C° 0.2 mm 3 mps 756 mmHg 96%
    04:00 +24°C° 0.4 mm 3 mps 757 mmHg 96%
    05:00 +24°C° 0.4 mm 3 mps 757 mmHg 95%
    06:00 +25°C° 0.4 mm 3 mps 757 mmHg 95%
    07:00 +26°C° 0.4 mm 3 mps 757 mmHg 91%
    08:00 +27°C° 0.4 mm 4 mps 758 mmHg 86%
    09:00 +28°C° 0.4 mm 4 mps 758 mmHg 82%
    10:00 +29°C° 0.2 mm 4 mps 758 mmHg 76%
    11:00 +30°C° 0.2 mm 4 mps 758 mmHg 69%
    12:00 +32°C° 0.2 mm 4 mps 757 mmHg 63%
    13:00 +32°C° 0.1 mm 5 mps 757 mmHg 63%
    14:00 +32°C° 0.1 mm 5 mps 756 mmHg 63%
    15:00 +32°C° 0.1 mm 5 mps 756 mmHg 62%
    16:00 +29°C° 0 mm 5 mps 756 mmHg 69%
    17:00 +28°C° 0 mm 5 mps 756 mmHg 76%
    18:00 +26°C° 0 mm 4 mps 756 mmHg 82%
    19:00 +26°C° 0 mm 4 mps 757 mmHg 86%
    20:00 +25°C° 0 mm 4 mps 757 mmHg 90%
    21:00 +23°C° 0 mm 4 mps 758 mmHg 93%
    22:00 +23°C° 0 mm 4 mps 758 mmHg 94%
    23:00 +23°C° 0 mm 4 mps 758 mmHg 94%

    Day after tomorrow, 19 December, Tuesday

    Time Temperature Precipitation Wind Pressure Humidity
    00:00 +23°C° 0 mm 4 mps 758 mmHg 95%
    01:00 +24°C° 0.1 mm 3 mps 757 mmHg 95%
    02:00 +24°C° 0.1 mm 3 mps 757 mmHg 95%
    03:00 +22°C° 0.1 mm 3 mps 757 mmHg 95%
    04:00 +24°C° 0.2 mm 3 mps 757 mmHg 95%
    05:00 +24°C° 0.2 mm 2 mps 757 mmHg 94%
    06:00 +24°C° 0.2 mm 2 mps 758 mmHg 93%
    07:00 +26°C° 0.5 mm 2 mps 758 mmHg 86%
    08:00 +27°C° 0.5 mm 2 mps 758 mmHg 80%
    09:00 +29°C° 0.5 mm 3 mps 759 mmHg 73%
    10:00 +29°C° 0.3 mm 3 mps 758 mmHg 70%
    11:00 +30°C° 0.3 mm 3 mps 758 mmHg 66%
    12:00 +31°C° 0.3 mm 3 mps 758 mmHg 63%
    13:00 +31°C° 0.1 mm 3 mps 757 mmHg 62%
    14:00 +31°C° 0.1 mm 3 mps 756 mmHg 61%
    15:00 +32°C° 0.1 mm 4 mps 756 mmHg 59%
    16:00 +29°C° 0 mm 4 mps 756 mmHg 66%
    17:00 +28°C° 0 mm 4 mps 756 mmHg 74%
    18:00 +26°C° 0 mm 4 mps 756 mmHg 81%
    19:00 +26°C° 0 mm 3 mps 756 mmHg 85%
    20:00 +25°C° 0 mm 3 mps 757 mmHg 89%
    21:00 +24°C° 0 mm 3 mps 757 mmHg 93%
    22:00 +24°C° 0.1 mm 3 mps 757 mmHg 94%
    23:00 +24°C° 0.1 mm 3 mps 756 mmHg 94%

    20 December, Wednesday

    Time Temperature Precipitation Wind Pressure Humidity
    00:00 +24°C° 0.1 mm 3 mps 756 mmHg 95%
    01:00 +24°C° 0.1 mm 3 mps 756 mmHg 95%
    02:00 +24°C° 0.1 mm 3 mps 756 mmHg 96%
    03:00 +24°C° 0.1 mm 2 mps 755 mmHg 96%
    04:00 +24°C° 0 mm 2 mps 756 mmHg 96%
    05:00 +24°C° 0 mm 2 mps 756 mmHg 95%
    06:00 +24°C° 0 mm 2 mps 756 mmHg 95%
    07:00 +26°C° 0.1 mm 2 mps 757 mmHg 85%
    08:00 +28°C° 0.1 mm 2 mps 757 mmHg 75%
    09:00 +30°C° 0.1 mm 2 mps 757 mmHg 65%
    10:00 +30°C° 0.1 mm 2 mps 757 mmHg 64%
    11:00 +31°C° 0.1 mm 2 mps 756 mmHg 62%
    12:00 +33°C° 0.1 mm 3 mps 756 mmHg 60%
    13:00 +31°C° 0.1 mm 3 mps 755 mmHg 60%
    14:00 +31°C° 0.1 mm 3 mps 755 mmHg 60%
    15:00 +32°C° 0.1 mm 4 mps 754 mmHg 60%
    16:00 +30°C° 0 mm 4 mps 754 mmHg 67%
    17:00 +28°C° 0 mm 4 mps 755 mmHg 73%
    18:00 +27°C° 0 mm 4 mps 755 mmHg 80%
    19:00 +26°C° 0 mm 4 mps 755 mmHg 83%
    20:00 +25°C° 0 mm 3 mps 756 mmHg 87%
    21:00 +25°C° 0 mm 3 mps 756 mmHg 91%
    22:00 +24°C° 0.1 mm 3 mps 756 mmHg 93%
    23:00 +24°C° 0.1 mm 3 mps 756 mmHg 94%

    21 December, Thursday

    Time Temperature Precipitation Wind Pressure Humidity
    00:00 +24°C° 0.1 mm 2 mps 755 mmHg 95%
    01:00 +24°C° 0.1 mm 2 mps 755 mmHg 96%
    02:00 +24°C° 0.1 mm 2 mps 755 mmHg 96%
    03:00 +23°C° 0.1 mm 2 mps 754 mmHg 97%
    04:00 +24°C° 0.2 mm 2 mps 755 mmHg 96%
    05:00 +24°C° 0.2 mm 1 mps 755 mmHg 95%
    06:00 +24°C° 0.2 mm 1 mps 756 mmHg 95%
    07:00 +26°C° 0.3 mm 1 mps 756 mmHg 87%
    08:00 +28°C° 0.3 mm 1 mps 756 mmHg 79%
    09:00 +30°C° 0.3 mm 1 mps 756 mmHg 71%
    10:00 +30°C° 0.3 mm 2 mps 756 mmHg 70%
    11:00 +30°C° 0.3 mm 2 mps 756 mmHg 69%
    12:00 +31°C° 0.3 mm 3 mps 756 mmHg 68%
    13:00 +31°C° 0.4 mm 3 mps 755 mmHg 68%
    14:00 +30°C° 0.4 mm 4 mps 755 mmHg 69%
    15:00 +30°C° 0.4 mm 4 mps 754 mmHg 69%
    16:00 +29°C° 0.3 mm 4 mps 755 mmHg 75%
    17:00 +28°C° 0.3 mm 4 mps 755 mmHg 80%
    18:00 +26°C° 0.3 mm 4 mps 755 mmHg 85%
    19:00 +26°C° 0 mm 4 mps 756 mmHg 88%
    20:00 +25°C° 0 mm 4 mps 756 mmHg 90%
    21:00 +25°C° 0 mm 4 mps 756 mmHg 93%
    22:00 +25°C° 0 mm 4 mps 756 mmHg 93%
    23:00 +25°C° 0 mm 3 mps 756 mmHg 94%

    22 December, Friday

    Time Temperature Precipitation Wind Pressure Humidity
    00:00 +24°C° 0 mm 3 mps 756 mmHg 95%
    01:00 +24°C° 0 mm 3 mps 756 mmHg 95%
    02:00 +24°C° 0 mm 3 mps 755 mmHg 96%
    03:00 +24°C° 0 mm 3 mps 755 mmHg 96%
    04:00 +24°C° 0 mm 3 mps 755 mmHg 95%
    05:00 +24°C° 0 mm 3 mps 756 mmHg 94%
    06:00 +25°C° 0 mm 3 mps 756 mmHg 94%
    07:00 +27°C° 0 mm 3 mps 756 mmHg 84%
    08:00 +28°C° 0 mm 3 mps 757 mmHg 75%
    09:00 +30°C° 0 mm 3 mps 757 mmHg 66%
    10:00 +32°C° 0 mm 4 mps 756 mmHg 62%
    11:00 +33°C° 0 mm 4 mps 756 mmHg 58%
    12:00 +34°C° 0 mm 4 mps 756 mmHg 54%
    13:00 +34°C° 0 mm 4 mps 755 mmHg 55%
    14:00 +33°C° 0 mm 5 mps 755 mmHg 56%
    15:00 +33°C° 0 mm 5 mps 754 mmHg 57%
    16:00 +30°C° 0 mm 5 mps 755 mmHg 64%
    17:00 +29°C° 0 mm 5 mps 755 mmHg 71%
    18:00 +27°C° 0 mm 5 mps 755 mmHg 79%
    19:00 +27°C° 0 mm 5 mps 756 mmHg 83%
    20:00 +26°C° 0 mm 5 mps 756 mmHg 87%
    21:00 +25°C° 0 mm 4 mps 756 mmHg 91%
    22:00 +25°C° 0.1 mm 4 mps 756 mmHg 92%
    23:00 +25°C° 0.1 mm 4 mps 756 mmHg 94%
    Show more

    XHprof extension not loaded